COSMOS 2526

Last updated on Thu Jul 03 2025 00:02:47 GMT+0000 (Coordinated Universal Time)

1 43432U 18037A 25183.63080244 -.00000337 00000+0 00000+0 0 9993 2 43432 0.0289 89.3487 0000506 159.8432 26.8484 1.00268950 26460
UTC large
Height (km)
Speed (km/s)
/
Latitude / Longitude
Inclination (degrees)
Orbital Period (minutes)
Azimuth
Elevation
Range (km)
Doppler Factor

Next 0 passes for location: London (51.5072 / 0.1276)

Sorry there are no passes over London.